Flag for U.S.A. Weather past 2 weeks in Avalon (Santa Catalina Island), California, U.S.A.

49 °F

Passing clouds.

Feels Like: 44 °F
Forecast: 51 / 59 °F
Wind: 12 mph from West

Location: Catalina Airport

Current Time: Nov 26, 2015 at 7:05:41 PM

Latest Report: Nov 26, 2015 at 5:51 PM

Visibility: 10 mi

Pressure: 29.98 "Hg

Humidity: 64%

Dew point: 37 °F

Location of Avalon (Santa Catalina Island)Location

Historic Weather in Avalon (Santa Catalina Island) — Graph


Avalon (Santa Catalina Island) temperature yesterday

Maximum temperature yesterday: 55 °F (at 10:51 AM)
Minimum temperature yesterday: 48 °F (at 3:51 AM)
Average temperature yesterday: 50 °F

Past Weeks' High & Low Weather Summary

High79 °F (Nov 20, 10:51 AM)100% (Nov 24, 7:57 AM)30.19 "Hg (Nov 24, 7:57 AM)
Low47 °F (Nov 26, 6:51 AM)7% (Nov 13, 2:51 AM)29.86 "Hg (Nov 20, 2:51 PM)
Average62 °F35%29.96 "Hg
* Reported Nov 11 5:51 PM — Nov 26 5:51 PM, Avalon (Santa Catalina Island), Weather by CustomWeather, © 2015

Note: Actual official high and low records may vary slightly from our data, if they occured in-between our weather recording intervals... More about our weather records


Avalon (Santa Catalina Island) weather history for previous 24 hours

Time TempWeatherWind HumidityBarometerVisibility
5:51 PM
Thu, Nov 26
49 °FPassing clouds.12 mph64%29.98 "Hg10 mi
4:51 PM49 °FPassing clouds.12 mph61%29.97 "Hg10 mi
3:51 PM51 °FSunny.16 mph56%29.96 "Hg10 mi
2:51 PM52 °FSunny.14 mph57%29.96 "Hg10 mi
1:51 PM53 °FPassing clouds.17 mph52%29.96 "Hg10 mi
12:51 PM52 °FPassing clouds.13 mph61%29.97 "Hg10 mi
11:51 AM53 °FSunny.7 mph56%29.99 "Hg10 mi
10:51 AM53 °FSunny.14 mph55%30.01 "Hg10 mi
9:51 AM52 °FSunny.15 mph59%30.01 "Hg10 mi
8:51 AM51 °FSunny.13 mph63%30.01 "Hg10 mi
7:51 AM49 °FSunny.9 mph69%30.01 "Hg10 mi
6:51 AM47 °FSunny.10 mph71%29.99 "Hg10 mi
5:51 AM49 °FOvercast.13 mph69%29.98 "Hg10 mi
4:51 AM48 °FClear.13 mph71%29.97 "Hg10 mi
3:51 AM49 °FPassing clouds.18 mph66%29.96 "Hg10 mi
2:51 AM48 °FPassing clouds.13 mph68%29.96 "Hg10 mi
1:51 AM48 °FPassing clouds.14 mph74%29.94 "Hg10 mi
12:51 AM49 °FPassing clouds.14 mph71%29.95 "Hg10 mi
11:51 PM
Wed, Nov 25
49 °FPassing clouds.14 mph71%29.95 "Hg10 mi
10:51 PM49 °FPassing clouds.10 mph71%29.95 "Hg10 mi
9:51 PM48 °FPassing clouds.12 mph68%29.95 "Hg10 mi
8:51 PM49 °FPassing clouds.15 mph66%29.94 "Hg10 mi
7:51 PM49 °FPassing clouds.17 mph66%29.93 "Hg10 mi
Weather by CustomWeather, © 2015

See weather overviewHow to use our weather pages